Погода в Пхичите

Таиланд     16°26′34″N   100°20′37″E
темп.,
°C
ветер,
м/с
пор.,
м/с
влажн.,
%
обл.,
%
осадки,
мм/ч
давл.,
гПа
погр.,
м
28 сентября, вт
вт2801:00+25ссз1191100 0.4 101013
04:00+24ссз229496 0.0 100928
07:00+24с2293100 0.0 101081
10:00+29сз227817 0.0 1011649
13:00+31сз116845 1.2 10081206
16:00+31з117065 0.3 1006999
19:00+28всв117847 0.4 100711
22:00+26всв118797 1.1 101011
29 сентября, ср
ср2901:00+25ссз1194100 9.1 100823
04:00+24зсз2394100 5.0 100866
07:00+25ссз118893 5.1 100947
10:00+29ссз117571 0.0 1010547
13:00+32сз116610 0.0 10071148
16:00+32с006320 0.0 10051221
19:00+28ю11762 0.0 100612
22:00+26юв118518 2.3 100911
30 сентября, чт
чт3001:00+26юв11883 2.6 100711
04:00+25юв11915 0.0 100711
07:00+26в11893 0.0 100955
10:00+31ююв11743 0.1 1010632
13:00+33ю226222 0.2 10071418
16:00+33ю226020 0.0 10041483
19:00+29в11753 0.2 100613
22:00+26юв228872 0.8 100832
1 октября, пт
пт101:00+25ююв22917 2.3 100722
04:00+25ююв229287 0.3 100739
07:00+25юв249411 0.3 1009128
10:00+30ююв22775 0.0 1010655
13:00+32ю336425 0.1 10071440
16:00+33ю346794 0.0 10041555
19:00+28ююв378318 0.1 1007141
22:00+26ююв388891 0.0 1009205
2 октября, сб
сб201:00+25ююв259222 0.0 1008113
04:00+25ююв3592100 0.1 1008140
07:00+24ююв369397 1.8 1010210
10:00+29ю347776 0.1 1011668
13:00+31ю226961 0.3 10081182
16:00+31юв0170100 1.7 1006853
19:00+27вюв1184100 2.4 100712
22:00+26вюв118997 3.4 100911